COSMOS 2545 (760)

Last updated on Mon Jun 22 2026 00:03:26 GMT+0000 (Coordinated Universal Time)

1 45358U 20018A 26172.44771125 -.00000070 00000+0 00000+0 0 9991 2 45358 64.3522 312.2691 0008538 229.7287 130.1903 2.13102330 48750
UTC large
Height (km)
Speed (km/s)
/
Latitude / Longitude
Inclination (degrees)
Orbital Period (minutes)
Azimuth
Elevation
Range (km)
Doppler Factor

Next 0 passes for location: London (51.5072 / 0.1276)

No passes found over London.
COSMOS 2545 (760)